Location: Palombina Nuova
(43.6167°N, 13.4000°E)
Time: 19:51:49
(UTC+00:00)

Cosmos 1238 Rocket - Pass Details

Date: 17 February 2020
Orbit: 373 x 1032 km, 83.0° (Epoch: 05 April)

Event Time Altitude Azimuth Distance (km) Brightness Sun altitude
Rises 04:30:10 0° 355° (N) 3,732 7.0 -17.4°
Reaches altitude 10° 04:32:56 10° 359° (N) 2,724 6.3 -16.9°
Maximum altitude 04:39:06 57° 78° (ENE) 1,032 4.5 -15.8°
Drops below altitude 10° 04:44:21 10° 156° (SSE) 2,327 6.3 -14.9°
Sets 04:46:33 0° 161° (SSE) 3,151 7.0 -14.5°
